Regional Weather Roundup
Issued by NWS

Home | Current Version | Previous Version | Graphics & Text | Print | Product List | Glossary On
Versions: 1 2 3 4 5 6 7 8 9 10 11 12 13 14 15 16 17 18 19 20 21 22 23 24 25 26 27 28 29 30 31 32 33 34 35 36 37 38 39 40 41 42 43 44 45 46 47 48 49 50
000
ASUS45 KBOU 060607
RWRCO

WEATHER ROUNDUP FOR COLORADO
NATIONAL WEATHER SERVICE DENVER/BOULDER CO
1100 PM MST FRI FEB 05 2016

NOTE: "FAIR" INDICATES FEW OR NO CLOUDS BELOW 12000 FEET WITH NO
SIGNIFICANT WEATHER AND/OR OBSTRUCTIONS TO VISIBILITY.

COZ001>005-013-030-031-060700-
...NORTHWEST COLORADO...

CITY           SKY/WX    TMP DP  RH WIND       PRES   REMARKS
CRAIG          CLOUDY    -4  -9  79 CALM      30.49S
HAYDEN         CLOUDY    10   7  85 SE8       30.46R WCI  -1
MEEKER         CLOUDY     5   1  83 NE5       30.48R WCI  -4
MOUNT WERNER   NOT AVBL
STEAMBOAT SPGS CLOUDY    10   6  84 E3        30.46S
WALDEN         CLOUDY     1  -4  78 SE8       30.40R WCI -12
$$

COZ006>008-011-060700-
...WEST CENTRAL VALLEYS...

CITY           SKY/WX    TMP DP  RH WIND       PRES   REMARKS
GRAND JUNCTION CLOUDY     9   8  96 NE7       30.58R WCI  -2
MONTROSE       CLOUDY    10   4  76 S7        30.56R WCI  -1
EAGLE          CLEAR      7   3  85 SE5       30.54R WCI  -2
RIFLE          CLOUDY     7   3  84 CALM      30.56R
DELTA          CLOUDY    17  12  80 E5        30.57S WCI  10
NUCLA          CLOUDY    16   9  73 SE5       30.55R WCI   9
$$

COZ017>023-064>068-060700-
...SOUTHWEST COLORADO...

CITY           SKY/WX    TMP DP  RH WIND       PRES   REMARKS
DURANGO        CLOUDY     7   3  84 NE5       30.43S WCI  -2
CORTEZ         CLOUDY    10   5  80 E9        30.47S WCI  -3
PAGOSA SPRINGS CLOUDY     5   2  88 CALM      30.42S
TELLURIDE      CLOUDY    13   3  64 SE6       30.42F WCI   4
WOLF CREEK PAS CLOUDY    12  -9  37 N8        30.38S WCI   1
$$

COZ009-010-012-014-032>034-037-058>063-060700-
...CENTRAL COLORADO...

CITY           SKY/WX    TMP DP  RH WIND       PRES   REMARKS
ASPEN          CLOUDY     6  -1  73 S6        30.46S WCI  -4
BUENA VISTA    CLOUDY    18   3  51 W12G26    30.35R WCI   6
COPPER MTN     CLOUDY     9   0  66 W12       30.33R WCI  -6
BERTHOUD PASS  FAIR       0  -9  65 NW23G29   30.27R WCI -24
COTTONWOOD PAS CLOUDY    21  -4  33 W8        30.30S WCI  12
GUNNISON       CLOUDY   -11 N/A N/A CALM      30.52S
KREMMLING      HAZE      -8 -13  77 CALM      30.51R VSB 1/2
LEADVILLE      CLOUDY     4  -2  76 NE8       30.37R WCI  -9
MONARCH PASS     N/A      5   1  85 MISG      30.40R
SALIDA         NOT AVBL
SUNLIGHT       CLOUDY    10   7  85 CALM        N/A
WILKERSON PASS CLOUDY    14   0  52 NW12G23   30.27R WCI   0
$$

COZ069>075-060700-
...SAN LUIS VALLEY/SANGRE DE CRISTO MOUNTAINS...

CITY           SKY/WX    TMP DP  RH WIND       PRES   REMARKS
ALAMOSA        CLOUDY    -1  -7  75 SW8       30.41R WCI -15
LA VETA PASS   CLOUDY     9   0  66 MISG      30.28R
SAGUACHE       CLOUDY    14   3  62 NW14      30.41S WCI  -1
$$

COZ035-036-038>040-060700-
...NORTHERN COLORADO FRONT RANGE...

CITY           SKY/WX    TMP DP  RH WIND       PRES   REMARKS
DENVER INTL AP CLOUDY    21   6  52 SW13      30.25S WCI   9
DMNS CITY PARK   N/A     23   9  53 SE8       30.26S WCI  14
AURORA         CLEAR     18   6  59 S10       30.26S WCI   6
FRONT RANGE AP NOT AVBL
ERIE MUNI ARPT CLOUDY    11   8  87 CALM      30.25F
BOULDER MUN AP CLOUDY    19  12  73 N5        30.24F WCI  13
CENTENNIAL     CLOUDY    18   4  54 S7        30.25F WCI   9
BROOMFIELD     CLOUDY    28   7  40 CALM      30.24F
FORT COLLINS   CLOUDY    18   9  68 CALM      30.26F
LONGMONT       CLOUDY    13   6  73 W3        30.28S
$$

COZ041-046-047-076>085-087-088-060700-
...PIKES PEAK/PALMER DIVIDE AND SOUTHERN FOOTHILLS...

CITY           SKY/WX    TMP DP  RH WIND       PRES   REMARKS
COLO. SPRINGS  CLOUDY    10   2  69 N5        30.30S WCI   2
A. F. ACADEMY  CLOUDY     4  -1  79 N10       30.27F WCI -11
SCHRIEVER AFB  FAIR      16   7  69 W8        30.30S WCI   5
ELLICOTT       NOT AVBL
FALCON         CLOUDY    14   5  69 W8        30.28S WCI   2
FORT CARSON    CLEAR     30  14  51 SE6       30.25S WCI  24
LIMON          CLOUDY    -3  -7  82 N6        30.30S WCI -15
MONUMENT HILL  CLOUDY    18   3  53 SW12      30.26F WCI   5
TRINIDAD       CLOUDY    19  11  70 W10       30.32F WCI   7
$$

COZ042>045-048>051-090-091-060700-
...NORTHEAST COLORADO...

CITY           SKY/WX    TMP DP  RH WIND       PRES   REMARKS
GREELEY ARPT   CLOUDY     3   3 100 CALM      30.28F
AKRON          CLOUDY    15   8  73 W6        30.27S WCI   6
BURLINGTON     CLOUDY    15   6  67 W14       30.29S WCI   0
WRAY           CLEAR     20  12  70 NW10      30.29S WCI   8
STERLING       CLOUDY    12   9  85 SW9       30.28F WCI   0
HOLYOKE        CLEAR     25  14  63 W12       30.28R WCI  14
FORT MORGAN    CLOUDY    10   5  79 W12       30.30S WCI  -4
$$

COZ086-089-092>099-060700-
...SOUTHEAST COLORADO...

CITY           SKY/WX    TMP DP  RH WIND       PRES   REMARKS
PUEBLO         CLOUDY    19  11  70 CALM      30.34S
LA JUNTA       CLOUDY    19  12  74 W8        30.35F WCI   9
LAMAR          CLEAR     22  14  71 W10       30.34R WCI  11
SPRINGFIELD      N/A     20  15  81 W9        30.33R WCI   9
$$



USA.gov is the U.S. government's official web portal to all federal, state and local government web resources and services.